DW7898 Weather Reports


Display with metric or nautical units.
time (UTC)temp
F
wind
direction
speed
MPH
gust
MPH
rain 1hr
in
rain 24hr
in
rain mn
in
humidity
%
barometer
mb
20260902110400 88 163 7.0 13.0 0.00 0.00 0.00 37 1022.6
20260902105351 88 250 4.0 12.0 0.00 0.00 0.00 37 1022.5
20260902104347 87 128 5.0 13.0 0.00 0.00 0.00 37 1022.6
20260902103349 88 125 7.0 14.0 0.00 0.00 0.00 36 1022.6
20260902102342 89 96 3.0 10.0 0.00 0.00 0.00 36 1022.5
20260902101342 89 49 1.0 3.0 0.00 0.00 0.00 38 1022.6
20260902100401 88 49 2.0 5.0 0.00 0.00 0.00 39 1022.4
20260902095355 87 17 0.0 4.0 0.00 0.00 0.00 43 1022.5
20260902094355 86 306 2.0 4.0 0.00 0.00 0.00 46 1022.5
20260902093349 85 302 0.0 4.0 0.00 0.00 0.00 50 1022.6
20260902092342 84 303 3.0 5.0 0.00 0.00 0.00 51 1022.5
20260902091347 82 339 2.0 4.0 0.00 0.00 0.00 52 1022.5
20260902090345 82 340 2.0 4.0 0.00 0.00 0.00 55 1022.4
20260902085357 80 340 1.0 5.0 0.00 0.00 0.00 58 1022.4
20260902084357 80 340 0.0 5.0 0.00 0.00 0.00 59 1022.3
20260902083341 79 30 2.0 3.0 0.00 0.00 0.00 61 1022.4
20260902082339 78 31 0.0 3.0 0.00 0.00 0.00 63 1022.2
20260902081339 78 31 2.0 4.0 0.00 0.00 0.00 63 1022.3
20260902080345 77 35 1.0 2.0 0.00 0.00 0.00 65 1022.2
20260902075343 77 35 2.0 3.0 0.00 0.00 0.00 66 1022.1
20260902074345 76 37 2.0 4.0 0.00 0.00 0.00 67 1022.1
20260902073349 75 46 0.0 4.0 0.00 0.00 0.00 69 1022.2
20260902072341 75 41 3.0 4.0 0.00 0.00 0.00 70 1022.2
20260902071401 74 38 1.0 4.0 0.00 0.00 0.00 72 1022.1
20260902070338 74 38 2.0 3.0 0.00 0.00 0.00 72 1022.0
20260902065357 74 38 0.0 2.0 0.00 0.00 0.00 73 1021.9
20260902064359 74 38 0.0 2.0 0.00 0.00 0.00 74 1021.8
20260902063359 73 38 0.0 1.0 0.00 0.00 0.00 76 1021.8
20260902062354 72 38 0.0 0.0 0.00 0.00 0.00 77 1021.6
20260902060337 71 38 0.0 1.0 0.00 0.00 0.00 79 1021.5
20260902055339 71 38 0.0 1.0 0.00 0.00 0.00 79 1021.3
20260902054347 70 38 0.0 2.0 0.00 0.00 0.00 79 1021.3
20260902053350 70 38 0.0 1.0 0.00 0.00 0.00 79 1021.3
20260902052343 70 38 0.0 1.0 0.00 0.00 0.00 79 1021.3
20260902051347 70 38 1.0 2.0 0.00 0.00 0.00 79 1021.1
20260902050348 70 38 0.0 1.0 0.00 0.00 0.00 78 1021.0
20260902045340 70 38 0.0 2.0 0.00 0.00 0.00 79 1021.1
20260902044359 70 38 1.0 3.0 0.00 0.00 0.00 78 1021.0
20260902043356 71 38 2.0 3.0 0.00 0.00 0.00 78 1020.9
20260902042356 71 38 0.0 2.0 0.00 0.00 0.00 78 1021.0
20260902041354 71 38 2.0 3.0 0.00 0.00 0.00 77 1021.1
20260902040339 71 38 2.0 3.0 0.00 0.00 0.00 77 1021.2
20260902035349 71 38 0.0 2.0 0.00 0.00 0.00 77 1021.2
20260902034347 71 39 1.0 4.0 0.00 0.00 0.00 77 1021.1
20260902033345 71 38 3.0 4.0 0.00 0.00 0.00 77 1021.3
20260902032343 71 39 0.0 3.0 0.00 0.00 0.00 77 1021.2
20260902031341 71 40 0.0 2.0 0.00 0.00 0.00 77 1021.2
20260902030346 72 40 0.0 3.0 0.00 0.00 0.00 76 1021.2
20260902025358 72 40 1.0 4.0 0.00 0.00 0.00 76 1021.2
20260902024358 72 39 1.0 4.0 0.00 0.00 0.00 76 1021.4
20260902023358 72 41 2.0 4.0 0.00 0.00 0.00 75 1021.5
20260902022358 72 42 1.0 4.0 0.00 0.00 0.00 75 1021.4
20260902021357 72 42 1.0 4.0 0.00 0.00 0.00 74 1021.4
20260902015359 72 42 2.0 3.0 0.00 0.00 0.00 74 1021.3
20260902014341 72 42 2.0 3.0 0.00 0.00 0.00 74 1021.5
20260902013400 72 42 0.0 3.0 0.00 0.00 0.00 74 1021.7
20260902012355 73 42 1.0 4.0 0.00 0.00 0.00 73 1021.7
20260902011356 73 42 1.0 5.0 0.00 0.00 0.00 73 1021.8
20260902010337 73 43 2.0 3.0 0.00 0.00 0.00 73 1021.8
20260902005351 73 43 3.0 4.0 0.00 0.00 0.00 73 1022.0
20260902004357 73 43 1.0 4.0 0.00 0.00 0.00 72 1021.9
20260902003357 74 44 2.0 4.0 0.00 0.00 0.00 71 1021.9
20260902002355 74 147 2.0 3.0 0.00 0.00 0.00 70 1022.0
20260902001341 74 152 1.0 2.0 0.00 0.00 0.00 70 1022.0
20260902000340 74 152 1.0 4.0 0.00 0.00 0.00 70 1022.0
20260901235339 74 155 0.0 0.0 0.00 0.00 0.00 70 1021.8
20260901234339 75 155 0.0 0.0 0.00 0.00 0.00 69 1021.8
20260901233349 75 155 0.0 0.0 0.00 0.00 0.00 69 1021.8
20260901232359 75 155 0.0 0.0 0.00 0.00 0.00 69 1021.9
20260901231339 75 155 0.0 0.0 0.00 0.00 0.00 68 1021.9
20260901230345 75 155 0.0 0.0 0.00 0.00 0.00 68 1021.8
20260901225357 75 155 0.0 0.0 0.00 0.00 0.00 68 1021.6
20260901224358 75 155 0.0 0.0 0.00 0.00 0.00 68 1021.5
20260901223339 76 155 0.0 2.0 0.00 0.00 0.00 67 1021.4
20260901222340 76 155 1.0 2.0 0.00 0.00 0.00 66 1021.5
20260901221341 76 156 0.0 1.0 0.00 0.00 0.00 66 1021.4
20260901220346 76 156 0.0 1.0 0.00 0.00 0.00 65 1021.3
20260901215340 76 156 0.0 1.0 0.00 0.00 0.00 66 1021.3
20260901214343 76 156 0.0 1.0 0.00 0.00 0.00 65 1021.1
20260901213343 76 156 0.0 1.0 0.00 0.00 0.00 65 1021.0
20260901212341 76 156 0.0 1.0 0.00 0.00 0.00 65 1020.9
20260901211345 77 156 2.0 3.0 0.00 0.00 0.00 65 1020.9
20260901210345 77 156 0.0 3.0 0.00 0.00 0.00 64 1020.7
20260901205355 77 156 0.0 2.0 0.00 0.00 0.00 64 1020.8
20260901204357 77 156 1.0 3.0 0.00 0.00 0.00 64 1020.8
20260901203339 78 158 1.0 4.0 0.00 0.00 0.00 63 1020.6
20260901202356 78 220 1.0 4.0 0.00 0.00 0.00 61 1020.6
20260901201339 79 221 1.0 3.0 0.00 0.00 0.00 60 1020.4
20260901200345 79 221 1.0 2.0 0.00 0.00 0.00 60 1020.5
20260901195344 79 221 1.0 3.0 0.00 0.00 0.00 60 1020.5
20260901194345 79 221 1.0 4.0 0.00 0.00 0.00 60 1020.3
20260901193345 80 221 2.0 3.0 0.00 0.00 0.00 59 1020.2
20260901192338 80 221 1.0 4.0 0.00 0.00 0.00 59 1020.2
20260901191338 80 224 1.0 3.0 0.00 0.00 0.00 58 1020.1
20260901190341 80 224 2.0 4.0 0.00 0.00 0.00 58 1019.8
20260901185340 80 224 3.0 5.0 0.00 0.00 0.00 57 1019.7
20260901184344 81 235 2.0 5.0 0.00 0.00 0.00 57 1019.7
20260901183346 81 235 2.0 3.0 0.00 0.00 0.00 56 1019.5
20260901182345 81 235 2.0 3.0 0.00 0.00 0.00 56 1019.4
20260901181347 81 235 1.0 5.0 0.00 0.00 0.00 56 1019.5
20260901180347 81 232 3.0 5.0 0.00 0.00 0.00 55 1019.9
20260901175400 82 231 3.0 7.0 0.00 0.00 0.00 55 1020.0
20260901174358 82 238 1.0 6.0 0.00 0.00 0.00 55 1020.2
20260901173354 82 243 4.0 8.0 0.00 0.00 0.00 55 1020.1
20260901172341 81 204 3.0 9.0 0.00 0.00 0.00 56 1020.4
20260901171359 81 231 4.0 11.0 0.00 0.00 0.00 55 1020.3
20260901170401 82 236 5.0 8.0 0.00 0.00 0.00 56 1020.5
20260901165352 82 233 3.0 8.0 0.00 0.00 0.00 58 1020.3
20260901164352 82 185 3.0 7.0 0.00 0.00 0.00 57 1020.4
20260901163352 82 208 3.0 9.0 0.00 0.00 0.00 58 1020.5
20260901162343 82 199 4.0 9.0 0.00 0.00 0.00 57 1020.8
20260901161341 83 222 4.0 9.0 0.00 0.00 0.00 56 1020.6
20260901160354 83 254 3.0 7.0 0.00 0.00 0.00 55 1020.6
20260901155348 83 270 3.0 12.0 0.00 0.00 0.00 55 1020.6
20260901154343 83 213 5.0 12.0 0.00 0.00 0.00 56 1020.7
20260901153341 82 202 3.0 10.0 0.00 0.00 0.00 58 1020.8
20260901152341 82 226 4.0 9.0 0.00 0.00 0.00 60 1020.6
20260901151400 82 220 7.0 12.0 0.00 0.00 0.00 61 1020.8
20260901150352 82 229 7.0 13.0 0.00 0.00 0.00 61 1020.9
20260901145403 82 214 5.0 11.0 0.00 0.00 0.00 60 1021.1
20260901144355 83 127 4.0 11.0 0.00 0.00 0.00 58 1020.9
20260901143352 83 254 3.0 7.0 0.00 0.00 0.00 57 1021.0
20260901142346 83 245 4.0 9.0 0.00 0.00 0.00 56 1021.0
20260901141349 83 203 2.0 10.0 0.00 0.00 0.00 56 1020.7
20260901140342 83 118 3.0 11.0 0.00 0.00 0.00 55 1020.6
20260901135356 84 204 3.0 13.0 0.00 0.00 0.00 55 1021.1
20260901134350 84 140 6.0 10.0 0.00 0.00 0.00 55 1020.9
20260901133344 85 143 7.0 11.0 0.00 0.00 0.00 53 1021.2
20260901132355 85 48 2.0 10.0 0.00 0.00 0.00 52 1021.4
20260901131351 85 117 3.0 9.0 0.00 0.00 0.00 55 1021.6
20260901130344 84 204 4.0 9.0 0.00 0.00 0.00 56 1021.7
20260901125344 84 231 5.0 12.0 0.00 0.00 0.00 57 1021.7
20260901124359 84 128 6.0 16.0 0.00 0.00 0.00 56 1021.6
20260901123342 85 176 5.0 15.0 0.00 0.00 0.00 56 1021.9
20260901122340 84 182 6.0 12.0 0.00 0.00 0.00 56 1021.8
20260901121359 83 177 9.0 18.0 0.00 0.00 0.00 56 1022.0
20260901120354 84 157 4.0 18.0 0.00 0.00 0.00 57 1022.0
20260901115347 85 144 8.0 15.0 0.00 0.00 0.00 54 1022.0
20260901114341 85 106 3.0 11.0 0.00 0.00 0.00 53 1022.1
20260901113357 85 328 1.0 17.0 0.00 0.00 0.00 53 1022.1
20260901112348 85 154 3.0 13.0 0.00 0.00 0.00 52 1022.3
20260901111340 84 227 8.0 17.0 0.00 0.00 0.00 52 1022.2